Theta_e
312 310 309 308 309 311 310 309 304 303 302 302 302 302 302 304 312 321 320 324 326 325 324 325 326 327 328 328 332 330 327 328 328 327 327 327 330 330 332 331 329 329 328 326 326 326 333 325 323 324 325 322 319 319
312 309 308 309 310 311 311 310 303 302 302 302 302 302 302 305 310 320 321 322 324 324 323 321 321 321 322 322 328 327 328 327 326 329 327 329 329 329 331 332 327 332 325 327 326 331 327 324 324 323 322 320 319 318
311 309 308 309 311 311 311 309 302 302 301 301 301 301 301 305 311 317 320 321 324 322 323 323 321 320 320 320 321 328 327 326 328 324 328 329 332 330 332 329 329 327 322 327 330 325 324 324 323 321 320 319 317 315
310 308 308 309 311 311 311 308 302 301 301 301 301 301 301 304 312 318 319 318 324 323 322 321 321 319 319 319 319 322 326 323 321 324 325 327 328 328 329 327 327 325 327 328 328 323 324 324 321 320 319 317 315 313
309 308 308 310 312 311 311 306 301 301 301 301 301 301 301 303 309 317 317 316 318 324 323 320 320 319 318 319 319 322 325 328 323 325 326 328 326 328 324 325 327 325 329 330 327 323 321 321 321 319 318 317 313 313
308 308 310 312 311 311 310 304 301 301 300 301 301 302 302 303 307 320 320 316 316 320 323 322 318 317 317 318 319 321 321 322 322 325 326 324 324 328 324 328 325 325 327 328 325 323 322 320 319 318 318 315 312 312
307 310 311 312 311 310 308 302 301 300 300 301 302 306 308 308 311 315 316 315 316 318 323 321 321 318 320 320 318 318 320 320 321 323 325 324 323 325 327 328 325 325 326 325 324 324 324 321 321 318 316 313 311 312
309 311 312 312 311 309 304 301 300 300 301 302 303 306 308 311 314 315 313 314 314 321 320 321 320 321 321 321 320 321 318 318 319 320 321 322 320 324 326 324 324 324 325 325 324 323 321 321 319 318 316 313 313 313
310 312 312 311 307 303 301 300 300 301 302 303 304 306 312 313 313 314 307 307 309 319 319 322 325 323 319 319 321 321 322 320 321 321 320 323 324 325 322 322 323 322 322 324 325 325 322 320 320 319 316 314 313 314
311 312 311 305 302 301 300 300 300 301 303 304 311 313 312 312 306 313 312 315 314 316 319 319 319 320 320 321 320 323 321 322 324 323 322 324 323 321 320 320 320 320 319 319 322 324 324 321 321 319 318 315 314 314
311 311 305 302 301 300 300 300 301 303 305 312 313 314 312 308 316 314 314 315 316 317 317 318 320 321 318 323 322 320 322 321 323 324 325 323 322 320 319 318 318 318 319 318 318 319 321 322 322 320 319 316 314 314
310 305 304 302 301 300 301 302 303 312 309 310 311 310 314 313 313 315 316 316 318 319 317 319 317 318 319 318 320 320 322 320 324 321 323 324 320 319 318 318 317 318 318 318 318 318 318 319 321 321 320 317 315 314
307 306 304 303 301 300 301 303 305 307 306 313 313 312 312 314 320 317 317 319 320 318 317 318 319 317 318 317 319 319 320 322 320 322 323 321 319 318 318 318 317 317 317 318 318 318 318 318 319 320 320 317 315 314
307 306 305 303 301 300 302 303 305 306 313 313 313 313 317 317 318 319 319 318 317 318 317 317 318 317 316 318 317 319 320 319 320 321 322 319 319 318 318 317 316 316 317 317 318 318 318 319 319 319 319 317 314 314
307 306 306 303 300 300 303 305 305 310 313 313 314 318 317 316 315 315 315 315 316 316 316 317 317 316 317 317 316 318 319 319 321 321 319 318 318 317 317 316 315 316 316 318 318 318 318 318 318 319 319 315 314 314
306 306 304 301 300 301 303 305 309 311 311 314 316 316 315 316 315 316 315 315 314 315 316 316 315 316 316 316 317 318 318 321 320 317 317 316 317 316 315 315 315 315 315 314 316 318 317 317 317 318 317 315 313 313
304 303 300 299 300 302 304 310 310 309 311 313 316 316 316 316 315 314 314 313 313 314 316 315 316 318 315 316 317 317 320 318 317 316 315 316 316 316 315 314 314 314 313 313 315 316 317 316 315 314 315 316 315 314
302 300 299 300 302 305 304 308 308 309 312 314 315 315 315 314 314 313 313 312 312 313 313 315 313 315 315 314 317 316 315 314 314 314 315 315 315 314 314 313 313 312 313 312 313 314 316 316 315 312 312 313 312 312
299 299 299 301 304 307 307 307 309 309 311 311 313 313 314 313 313 312 312 311 311 310 311 312 312 313 315 314 313 313 313 314 313 313 313 314 314 312 312 311 312 312 312 313 313 311 312 312 314 314 314 313 312 312
298 299 301 303 301 306 306 307 308 309 311 311 311 311 312 313 312 311 311 311 310 310 311 310 311 313 312 312 313 313 313 312 312 312 312 311 312 311 311 311 311 311 311 310 311 312 310 312 313 314 314 314 313 312
299 301 301 301 306 306 307 307 308 310 309 312 311 311 312 310 311 311 311 310 310 310 310 310 311 311 311 311 311 311 311 311 311 310 311 310 309 310 310 310 310 311 309 309 310 311 311 309 310 311 313 313 312 312
301 301 304 303 305 306 307 308 309 309 311 311 310 310 310 310 310 311 310 310 311 311 310 311 311 311 311 310 311 311 311 311 311 310 310 310 310 309 309 309 308 310 309 309 309 309 311 311 308 308 308 309 312 313
301 302 304 305 305 305 307 308 309 309 310 310 309 310 310 311 311 311 311 311 311 311 310 311 312 311 311 311 310 311 311 310 310 309 309 309 309 309 309 308 308 308 307 308 307 308 308 309 310 309 307 308 309 311
299 305 306 306 305 306 307 308 308 308 309 309 310 310 311 311 311 311 312 311 311 310 310 311 311 311 311 311 311 311 310 309 308 309 309 308 308 308 307 308 308 307 307 307 306 307 306 306 307 308 308 307 307 309
303 304 305 304 306 307 307 307 308 308 309 309 310 310 310 310 311 311 311 311 311 311 311 311 310 310 310 311 311 310 311 310 309 308 308 309 309 308 308 308 307 308 307 307 307 306 306 306 305 305 305 306 307 307
302 304 305 306 306 307 307 308 308 308 309 309 309 309 309 310 310 310 310 311 311 311 311 311 311 310 310 310 311 310 309 309 309 309 309 308 307 307 307 307 307 307 306 306 306 305 305 305 305 306 305 305 305 306
304 305 305 306 307 307 307 307 307 308 309 309 309 309 309 309 309 309 310 311 311 311 311 311 310 310 309 309 309 309 308 307 307 307 306 305 305 305 306 306 307 307 307 307 306 306 304 304 304 304 304 305 305 305
306 306 306 306 307 307 307 308 308 308 308 308 308 309 309 309 310 310 310 311 310 310 309 309 309 309 308 308 307 306 306 305 305 304 304 304 304 304 304 305 305 305 304 304 304 304 304 304 304 304 304 304 304 306
306 306 306 307 307 307 307 307 308 308 309 309 310 309 309 309 309 308 309 309 309 309 309 308 308 309 307 306 306 306 305 304 303 303 302 302 302 301 301 299 299 299 300 300 301 301 302 303 303 303 303 303 304 304
306 306 307 306 307 307 308 308 308 309 308 309 308 308 308 308 309 309 308 308 309 309 308 308 307 306 306 305 304 304 304 303 302 301 300 299 297 296 295 295 295 295 296 297 297 297 297 299 300 302 303 303 303 302
305 306 306 306 307 308 308 308 309 309 309 308 309 309 309 309 307 308 308 308 308 308 307 307 306 305 305 305 304 303 303 302 301 299 297 296 296 296 296 295 295 295 295 295 295 295 295 295 297 299 301 302 303 302
306 306 306 306 308 308 309 309 310 310 310 310 309 309 309 308 308 308 308 307 306 304 304 303 304 304 304 303 302 302 301 300 299 298 298 297 296 295 295 296 296 296 296 296 295 295 294 294 295 298 299 299 300 302
306 306 306 306 307 308 308 308 308 309 309 309 309 308 308 308 308 308 309 306 304 303 302 302 302 302 302 301 301 300 299 298 298 297 296 296 295 295 295 295 295 296 296 296 296 295 295 295 296 296 297 297 299 300
Wind_Speed
7 4 1 2 5 8 11 15 18 18 17 17 15 14 13 11 9 11 9 9 11 14 13 13 14 13 4 8 6 4 7 3 7 4 4 0 5 4 2 9 2 4 5 5 3 3 5 14 8 8 6 5 7 7
8 5 2 1 3 7 10 14 17 16 16 15 13 12 10 10 9 13 6 14 14 11 14 14 16 14 12 10 7 1 3 4 8 7 2 4 3 2 7 3 9 5 7 5 7 5 6 10 7 5 5 6 7 6
10 6 4 1 3 6 10 13 15 15 14 13 11 10 9 9 9 9 8 14 7 12 11 8 10 11 11 11 8 6 6 5 1 5 11 2 3 7 3 2 11 7 5 4 5 5 8 5 4 4 5 5 5 4
11 7 4 1 2 5 9 12 13 13 12 11 10 9 8 8 9 12 6 6 4 0 4 6 4 9 10 8 7 5 4 3 2 3 7 2 1 3 8 9 11 11 8 9 8 11 6 4 5 3 3 4 4 4
11 8 4 2 2 5 8 11 12 11 10 9 8 8 7 7 8 12 9 8 4 3 5 9 5 9 8 6 6 5 3 4 4 5 1 4 5 5 4 7 10 16 9 5 5 13 10 8 3 2 2 3 3 2
11 8 5 3 2 5 7 10 10 10 8 7 6 8 8 6 7 8 3 6 8 7 2 4 5 7 8 6 5 4 3 2 3 5 6 5 3 5 3 6 12 10 8 6 6 7 8 6 3 1 1 1 2 2
12 9 5 2 2 5 7 9 9 7 6 4 5 8 10 10 7 2 2 3 5 5 4 6 7 6 5 4 6 5 4 2 5 3 6 6 3 7 9 9 13 11 8 4 2 4 2 1 2 2 2 2 3 2
12 8 5 2 3 5 6 8 7 5 3 4 5 7 9 12 13 9 8 7 5 2 3 1 4 4 5 3 7 2 3 3 4 3 2 5 3 7 5 10 11 14 11 3 3 5 4 1 4 4 4 4 2 2
11 8 5 2 3 4 6 6 5 3 3 6 8 9 9 8 4 2 10 12 10 3 3 3 3 5 2 5 3 5 1 4 1 3 4 5 4 6 6 9 12 14 14 15 10 8 5 4 5 6 6 7 6 4
12 8 4 2 2 3 4 5 3 2 5 6 7 3 3 2 8 7 6 2 1 2 1 4 1 5 6 2 3 2 2 1 3 4 2 5 5 6 6 8 10 12 14 16 16 10 8 9 9 9 9 9 8 6
11 7 4 1 0 2 3 3 2 4 6 5 2 4 3 6 4 2 1 1 1 3 4 3 7 4 4 6 3 3 3 1 3 5 2 3 4 7 7 9 11 12 13 14 13 13 12 12 13 13 12 11 9 8
10 7 4 2 1 2 2 3 4 5 2 3 6 5 4 2 2 1 1 3 2 3 3 6 6 4 3 3 4 2 2 2 3 2 2 4 3 6 8 10 12 14 15 16 15 15 15 14 15 17 15 13 12 10
10 7 4 2 2 1 2 3 5 8 8 5 4 2 3 2 3 2 2 3 4 3 3 3 3 3 2 1 2 3 2 1 1 3 4 3 4 8 10 12 14 16 16 16 17 17 17 16 14 15 16 12 15 12
9 6 3 2 1 1 3 4 4 4 6 2 1 3 1 3 3 4 8 8 6 3 3 4 2 5 2 2 3 3 3 3 2 0 4 4 7 9 12 15 18 19 18 18 19 18 16 14 13 13 14 15 17 18
8 6 2 1 1 2 3 4 5 6 4 2 1 0 3 6 9 8 7 9 6 4 5 3 2 4 3 2 2 3 2 3 4 4 3 5 8 10 13 15 17 18 18 18 16 16 15 15 13 12 9 17 19 20
8 4 2 3 3 4 4 5 6 5 3 3 1 7 9 9 8 7 6 7 6 5 3 3 2 2 1 3 2 1 4 5 3 4 3 5 8 9 11 13 16 18 19 21 20 16 15 14 12 9 7 11 18 22
7 3 5 5 5 6 6 5 4 4 3 2 3 3 7 9 8 7 6 7 7 6 4 3 3 4 4 3 0 3 4 3 3 4 6 6 7 8 11 13 16 17 19 23 20 18 13 12 10 11 13 14 14 18
5 7 7 8 9 7 4 4 3 3 3 4 6 6 6 6 5 5 6 7 6 5 4 4 4 3 2 3 3 4 3 4 4 5 6 5 7 10 12 15 16 17 18 21 22 18 15 14 11 9 8 7 8 9
9 10 10 12 10 5 2 3 3 3 4 4 5 4 4 4 3 3 4 5 5 4 3 3 3 2 2 4 6 3 2 3 6 5 4 5 4 10 13 15 16 16 19 19 19 21 19 17 16 13 10 7 7 7
11 11 12 12 6 3 3 2 4 2 3 3 3 4 2 2 1 1 2 4 4 3 2 2 3 3 5 4 2 3 4 4 6 8 6 7 7 12 14 16 17 18 18 18 17 20 20 18 13 15 14 12 13 12
12 12 11 8 4 5 3 2 3 3 4 2 3 2 2 1 1 2 3 5 3 2 2 2 2 2 1 1 2 2 2 5 7 8 11 13 13 12 15 16 16 16 18 17 18 19 19 19 18 14 16 13 11 13
14 13 6 6 3 3 3 2 2 3 2 3 4 3 1 1 1 2 3 2 2 2 3 4 1 1 3 2 1 3 5 7 9 11 9 11 13 14 13 15 15 16 18 18 18 19 20 16 18 17 17 19 16 11
14 9 3 3 3 2 3 3 2 1 3 4 3 2 2 2 2 2 3 1 2 2 3 3 1 4 3 1 4 6 6 8 11 11 11 13 15 14 12 13 14 14 17 18 18 18 19 21 19 15 14 19 23 19
10 3 2 2 2 2 3 3 2 3 3 4 3 2 3 1 1 2 4 1 3 2 2 2 4 5 5 6 7 5 7 10 12 12 12 14 16 16 16 17 15 16 14 16 17 17 18 18 20 18 18 18 21 24
1 2 2 2 2 4 5 6 5 4 3 4 4 2 3 3 2 2 1 0 2 3 3 3 5 5 7 6 8 7 7 9 14 17 16 16 17 17 18 19 19 18 13 11 16 18 18 18 19 19 18 18 21 19
1 2 3 4 5 4 5 4 5 4 4 4 4 2 3 1 2 2 1 2 3 3 4 5 4 7 7 6 10 12 14 15 17 18 19 17 19 22 24 24 23 20 18 16 15 17 20 20 19 20 21 20 20 20
2 3 4 3 3 5 4 3 5 5 4 4 4 5 4 3 3 2 2 1 2 3 4 5 6 8 11 13 14 13 15 16 17 19 21 21 20 21 21 24 24 21 22 17 20 20 20 21 21 21 21 21 21 20
1 4 6 7 5 4 4 6 6 5 3 2 2 4 2 1 2 2 1 4 5 6 6 8 8 9 10 12 13 15 15 16 17 20 21 21 19 19 17 16 15 17 20 18 19 19 19 21 21 21 20 22 22 19
5 6 8 7 5 4 4 3 3 2 2 4 3 1 1 2 4 6 7 7 6 6 8 10 9 8 13 13 12 14 16 17 19 21 21 22 21 19 21 21 21 20 19 20 22 23 20 19 21 22 23 21 21 21
8 7 4 5 5 4 4 2 2 3 3 3 3 3 5 6 7 9 8 7 7 8 8 10 11 10 12 12 13 13 14 14 13 15 18 20 21 20 19 19 19 18 18 18 20 22 23 24 24 21 21 22 20 20
9 5 2 3 2 3 3 2 2 3 4 5 5 6 8 11 10 9 7 7 7 7 7 8 9 10 11 12 13 15 16 13 16 19 16 14 14 14 16 18 20 21 20 21 22 22 21 20 19 20 20 20 18 18
7 4 3 3 4 2 2 3 3 4 6 8 10 11 10 10 10 8 7 5 5 7 8 9 9 9 10 10 11 12 18 19 18 11 11 12 13 15 17 19 21 23 24 26 25 23 21 20 20 19 17 18 18 17
4 4 3 2 2 3 4 4 6 7 9 10 11 10 10 9 7 4 6 7 7 7 7 7 7 8 9 10 10 12 14 15 15 16 15 17 18 19 20 20 22 23 25 26 24 23 20 18 17 17 18 21 19 13
Wind_Direction
188 190 159 14 5 7 7 7 7 8 10 12 17 24 28 38 56 81 28 87 84 99 67 66 61 42 29 345 6 67 238 203 258 286 297 71 6 77 131 183 311 106 317 61 276 283 82 9 0 7 9 2 354 6
191 193 186 336 359 3 5 4 4 5 7 12 16 26 36 47 66 77 55 102 82 62 112 84 68 57 50 31 353 307 16 14 9 298 36 257 176 106 74 56 65 51 31 9 7 53 43 23 46 30 15 21 8 10
193 190 193 230 351 356 2 0 1 2 4 10 16 30 45 57 73 88 67 108 97 119 119 91 45 38 38 27 17 326 82 6 30 321 328 217 182 57 43 123 86 95 15 52 136 67 27 61 39 34 32 35 28 42
193 193 202 255 328 351 356 355 357 359 3 11 19 34 52 72 80 92 66 84 49 351 140 88 68 28 17 22 24 31 37 18 11 275 268 343 33 28 64 72 52 7 332 29 41 20 65 108 42 54 56 46 45 32
192 194 205 233 295 342 347 348 354 357 3 15 29 44 61 85 91 93 63 79 64 23 52 111 109 20 13 36 41 51 48 323 250 201 312 66 56 336 41 98 44 6 9 21 39 31 2 34 68 96 65 37 31 67
189 192 196 214 307 339 337 344 350 354 4 24 48 62 64 84 94 79 117 48 78 104 282 135 73 31 32 46 61 71 81 17 356 348 68 83 2 305 5 89 36 9 13 7 37 31 50 62 84 73 58 57 71 95
186 186 190 204 306 328 331 342 346 349 13 48 79 81 67 70 63 109 56 157 110 120 300 154 126 46 47 74 64 80 77 78 13 111 32 69 63 324 33 50 15 7 358 0 62 351 47 316 23 166 152 144 118 110
183 181 184 215 301 317 328 340 340 348 46 83 99 89 77 74 58 61 79 107 124 76 330 300 105 137 9 49 91 37 107 127 27 87 141 66 93 69 59 8 16 8 3 12 315 327 318 310 167 179 181 176 174 189
177 180 187 239 296 313 330 335 337 10 95 98 96 80 53 46 84 102 85 73 67 48 350 321 6 82 269 87 104 112 276 88 201 91 98 255 89 53 19 17 19 16 11 349 312 283 282 260 244 219 211 210 218 210
173 174 189 224 295 321 331 339 355 100 109 95 68 25 86 43 101 82 32 47 69 72 350 66 281 83 312 272 106 199 310 80 173 67 241 96 83 73 37 28 18 12 8 6 6 340 289 273 261 251 244 240 239 226
169 172 171 167 336 334 356 7 71 111 80 31 37 63 87 79 44 23 69 297 200 129 30 57 13 25 22 349 30 0 354 1 225 114 240 136 87 62 23 13 7 1 356 353 349 342 321 295 275 267 249 242 237 226
165 163 153 123 74 26 43 71 93 60 101 128 112 90 35 17 24 285 106 163 7 56 67 13 36 1 28 324 288 34 309 228 54 106 248 77 68 38 11 356 352 348 343 339 335 328 321 309 286 266 253 234 231 223
161 154 143 116 75 66 87 96 93 110 110 65 41 68 36 89 27 279 133 149 120 60 44 348 102 333 200 304 290 290 265 63 33 233 74 84 52 17 357 349 345 343 340 336 333 328 321 311 297 268 254 233 218 215
160 157 143 109 90 102 102 104 107 99 68 52 64 16 286 116 69 38 49 62 83 55 42 338 43 1 2 350 327 285 37 265 269 332 76 71 23 360 348 344 343 343 342 338 334 331 325 317 305 283 236 229 218 207
171 168 152 113 132 155 136 118 83 77 46 42 12 79 82 94 96 96 88 83 58 19 355 304 223 304 41 269 341 1 233 237 33 71 76 31 1 346 345 346 347 345 343 337 332 333 335 334 313 305 253 228 217 210
172 182 182 172 168 162 136 119 51 45 47 42 55 121 122 118 112 88 67 61 18 349 301 293 312 344 360 322 269 14 297 39 80 54 12 349 346 341 343 344 342 340 342 336 332 326 324 327 320 293 259 239 221 217
172 178 168 159 151 142 130 81 43 53 51 60 100 77 66 82 81 64 45 17 354 319 20 336 300 26 306 295 282 2 30 65 350 348 350 347 332 339 336 338 340 340 343 343 333 325 319 319 313 300 264 253 228 213
158 163 153 147 142 109 87 48 61 61 76 108 128 100 78 90 100 75 43 23 23 10 330 18 315 256 300 300 31 75 17 344 322 335 331 339 337 337 336 335 335 337 337 341 346 330 319 315 307 312 298 238 205 210
164 157 150 147 140 95 65 32 66 86 81 96 113 119 99 100 88 77 43 23 19 1 317 284 277 280 24 46 327 357 316 330 333 325 326 291 328 347 335 336 331 334 332 333 334 345 329 314 307 269 261 244 215 214
150 149 148 148 134 69 72 45 64 77 133 112 131 143 110 83 84 8 344 350 342 310 231 234 294 32 10 42 350 352 350 325 325 321 321 340 354 333 334 335 333 328 331 336 333 333 331 328 311 308 310 248 243 256
143 143 143 134 75 73 88 72 73 81 123 157 154 179 113 176 263 326 333 341 286 292 277 253 283 87 360 343 22 2 0 352 334 329 328 322 328 323 325 332 332 336 335 334 337 334 334 330 320 301 301 317 282 262
149 143 105 90 71 59 70 66 85 138 193 136 179 200 200 231 300 50 331 251 271 321 309 314 215 321 201 201 312 327 332 324 318 311 310 314 311 319 333 331 330 330 333 331 335 333 334 325 322 324 314 311 311 271
142 126 69 59 81 62 115 106 162 173 183 158 182 174 175 187 73 332 260 300 299 341 289 260 275 249 286 271 285 295 301 318 316 317 314 314 314 314 310 314 321 325 324 328 330 331 332 332 337 325 325 327 337 314
129 85 86 98 109 115 158 171 167 166 169 184 189 197 171 155 108 233 271 29 54 340 248 243 261 256 253 271 304 307 310 325 314 320 319 317 314 315 313 312 312 315 317 318 323 326 329 331 333 330 330 333 328 328
88 83 115 126 170 171 174 165 182 201 184 178 189 185 172 191 239 235 308 279 322 328 309 270 266 269 269 277 284 301 309 318 317 315 317 316 310 308 314 309 309 307 314 315 312 318 321 324 328 332 336 326 326 320
87 156 190 174 167 189 172 166 189 188 171 174 197 166 187 221 259 244 161 36 339 313 302 297 292 289 298 301 305 305 306 311 306 305 306 309 307 304 300 298 301 302 299 299 297 310 311 310 313 319 325 331 330 324
199 164 181 191 163 169 174 167 171 173 190 205 179 189 195 225 229 164 109 30 328 311 299 295 295 294 300 300 301 306 304 305 304 301 302 305 303 304 309 306 300 296 285 297 295 296 299 304 307 310 315 319 321 322
203 183 160 168 175 205 184 173 182 204 152 220 214 213 228 124 254 58 332 279 285 286 286 289 297 299 297 294 299 303 305 305 308 310 307 303 302 306 307 307 312 294 293 303 304 303 295 291 295 300 306 314 315 316
187 180 154 169 160 173 198 193 200 168 170 197 261 108 237 247 290 290 287 286 284 285 287 288 292 282 301 303 300 306 309 312 311 311 312 313 313 304 304 306 305 303 296 295 294 284 291 292 290 288 292 297 303 308
153 174 168 169 208 181 131 206 174 159 197 209 219 245 268 274 294 285 283 275 273 276 280 283 286 294 301 306 309 310 311 314 313 309 306 305 309 312 321 328 331 328 321 313 306 300 292 282 285 289 289 289 298 303
152 185 201 180 132 100 105 166 199 214 222 230 243 257 267 289 294 278 269 263 256 264 275 286 290 293 299 304 306 310 311 306 301 303 307 315 314 317 321 323 330 328 324 321 317 312 304 299 291 289 287 288 290 297
192 201 202 193 140 159 188 222 233 242 246 247 257 262 266 260 264 269 260 233 250 271 282 287 293 294 290 292 299 304 296 304 310 310 309 297 305 311 317 321 328 333 329 322 324 319 308 305 289 280 295 293 291 295
192 188 232 203 213 222 238 249 259 265 261 251 259 260 258 265 271 249 239 229 241 263 275 276 282 288 286 298 303 308 309 313 312 317 315 304 302 304 304 311 311 318 325 325 322 321 313 316 313 296 293 291 276 297